1489608000.33,60615,10.19,73356.3,-10.49,-11.19,-11.29,0,*6B
1489608001.59,60616,10.19,73344.5,-10.49,-11.29,-11.33,0,*60
1489608002.84,60617,10.19,73338.3,-10.49,-11.33,-11.45,0,*6B
1489608004.11,60618,10.19,73332.3,-10.51,-11.41,-11.55,0,*69
1489608005.34,60619,10.19,73314.3,-10.49,-11.37,-11.45,0,*61
1489608006.59,60620,10.19,73334.8,-10.49,-11.29,-11.45,0,*64
1489608007.85,60621,10.19,73332.5,-10.49,-11.33,-11.37,0,*6B
1489608009.12,60622,10.19,73348.0,-10.49,-11.29,-11.37,0,*63
1489608010.35,60623,10.19,73348.8,-10.49,-11.19,-11.37,0,*61
1489608011.59,60624,10.19,73350.3,-10.49,-11.15,-11.37,0,*6A
1489608012.82,60625,10.19,73358.0,-10.47,-11.19,-11.45,0,*6C
1489608014.07,60626,10.19,73374.0,-10.47,-11.19,-11.51,0,*6A
1489608015.33,60627,10.19,73380.5,-10.47,-11.19,-11.37,0,*6B
1489608016.57,60628,10.19,73370.3,-10.45,-11.15,-11.55,0,*6E
1489608017.86,60629,10.19,73384.5,-10.47,-11.29,-11.59,0,*6E
1489608019.14,60630,10.19,73382.5,-10.47,-11.29,-11.59,0,*66
1489608020.43,60631,10.19,73398.0,-10.47,-11.29,-11.73,0,*6F
1489608021.72,60632,10.19,73392.3,-10.47,-11.33,-11.77,0,*63
1489608023.0,60633,10.19,73388.8,-10.47,-11.33,-11.85,0,*6F
1489608024.28,60634,10.19,73400.8,-10.47,-11.37,-11.85,0,*6C
1489608025.57,60635,10.19,73392.3,-10.47,-11.51,-11.63,0,*65
1489608026.84,60636,10.19,73324.0,-10.49,-11.59,-11.73,0,*61
1489608028.1,60637,10.19,73322.5,-10.49,-11.63,-11.77,0,*6D
1489608029.36,60638,10.19,73336.0,-10.49,-11.73,-11.77,0,*63
1489608030.62,60639,10.19,73332.5,-10.49,-11.85,-11.97,0,*65
1489608031.89,60640,10.19,73376.3,-10.49,-11.73,-11.85,0,*61
1489608033.17,60641,10.19,73366.8,-10.51,-11.77,-11.77,0,*60
1489608034.43,60642,10.19,73366.8,-10.49,-11.73,-11.77,0,*6E
1489608035.69,60643,10.19,73376.3,-10.49,-11.51,-11.77,0,*6F
1489608036.96,60644,10.19,73372.8,-10.49,-11.59,-11.85,0,*6D
1489608038.24,60645,10.19,73364.8,-10.51,-11.77,-11.81,0,*6D
1489608039.53,60646,10.19,73364.3,-10.51,-11.77,-11.81,0,*6E
1489608040.83,60647,10.19,73352.8,-10.51,-11.63,-11.67,0,*62
1489608042.12,60648,10.19,73356.5,-10.51,-11.51,-11.55,0,*6D
1489608043.38,60649,10.19,73344.3,-10.51,-11.51,-11.41,0,*69
1489608044.61,60650,10.19,73364.3,-10.53,-11.41,-11.41,0,*62
1489608045.87,60651,10.19,73366.3,-10.51,-11.37,-11.41,0,*60
1489608047.14,60652,10.19,73356.8,-10.51,-11.37,-11.41,0,*63
1489608048.41,60653,10.19,73350.3,-10.51,-11.37,-11.41,0,*62
1489608049.67,60654,10.19,73376.8,-10.51,-11.37,-11.41,0,*65
1489608050.94,60655,10.19,73368.0,-10.51,-11.41,-11.51,0,*64
1489608052.19,60656,10.19,73346.5,-10.51,-11.41,-11.41,0,*66
1489608053.41,60657,10.19,73338.8,-10.53,-11.41,-11.41,0,*65
1489608054.7,60658,10.19,73326.5,-10.51,-11.37,-11.37,0,*68
1489608055.99,60659,10.19,73322.5,-10.51,-11.37,-11.37,0,*69
1489608057.27,60660,10.19,73346.5,-10.51,-11.37,-11.37,0,*63
1489608058.54,60661,10.19,73338.0,-10.51,-11.37,-11.41,0,*63
1489608059.83,60662,10.19,73350.3,-10.51,-11.37,-11.37,0,*61
1489608061.11,60663,10.19,73338.0,-10.51,-11.37,-11.37,0,*60
1489608062.4,60664,10.19,73338.8,-10.51,-11.37,-11.37,0,*67
1489608063.66,60665,10.19,73356.3,-10.51,-11.23,-11.33,0,*67
1489608064.93,60666,10.19,73352.3,-10.51,-11.23,-11.37,0,*60
1489608066.21,60667,10.19,73326.5,-10.51,-11.33,-11.33,0,*64
1489608067.48,60668,10.19,73320.5,-10.51,-11.23,-11.37,0,*6E
1489608068.77,60669,10.19,73328.5,-10.51,-11.33,-11.37,0,*6E
1489608070.05,60670,10.19,73338.3,-10.51,-11.37,-11.37,0,*62
1489608071.32,60671,10.19,73340.0,-10.49,-11.33,-11.37,0,*6E
1489608072.59,60672,10.19,73340.8,-10.49,-11.29,-11.29,0,*69
1489608073.85,60673,10.19,73336.3,-10.49,-11.33,-11.33,0,*68
1489608075.14,60674,10.19,73326.0,-10.51,-11.33,-11.37,0,*62
1489608076.41,60675,10.19,73350.3,-10.49,-11.29,-11.29,0,*6E
1489608077.69,60676,10.19,73342.0,-10.51,-11.33,-11.33,0,*64
1489608078.98,60677,10.19,73346.8,-10.51,-11.33,-11.33,0,*65
1489608080.25,60678,10.19,73344.0,-10.51,-11.23,-11.37,0,*6F
1489608081.53,60679,10.19,73336.0,-10.51,-11.33,-11.37,0,*6F
1489608082.81,60680,10.19,73350.0,-10.49,-11.29,-11.29,0,*64
1489608084.04,60681,10.19,73356.0,-10.49,-11.19,-11.33,0,*6D
1489608085.3,60682,10.19,73352.8,-10.51,-11.23,-11.37,0,*6A
1489608086.53,60683,10.19,73354.3,-10.49,-11.19,-11.33,0,*6F
1489608087.76,60684,10.19,73340.3,-10.49,-11.19,-11.33,0,*68
1489608089.0,60685,10.19,73344.0,-10.49,-11.15,-11.33,0,*65
1489608090.26,60686,10.19,73372.8,-10.51,-11.23,-11.37,0,*6E
1489608091.53,60687,10.19,73376.8,-10.51,-11.23,-11.37,0,*6F
1489608092.81,60688,10.19,73368.8,-10.51,-11.33,-11.33,0,*65
1489608094.08,60689,10.19,73352.0,-10.49,-11.29,-11.33,0,*66
1489608095.34,60690,10.19,73360.3,-10.51,-11.37,-11.41,0,*6D
1489608096.6,60691,10.19,73354.0,-10.49,-11.33,-11.37,0,*60
1489608097.88,60692,10.19,73364.0,-10.49,-11.29,-11.29,0,*67
1489608099.11,60693,10.19,73336.5,-10.49,-11.19,-11.29,0,*65
1489608100.35,60694,10.19,73346.3,-10.49,-11.19,-11.29,0,*62
1489608101.59,60695,10.19,73342.3,-10.49,-11.15,-11.29,0,*6F
1489608102.8,60696,10.19,73344.3,-10.49,-11.15,-11.19,0,*6F
1489608104.02,60697,10.19,73344.8,-10.49,-11.15,-11.15,0,*62
1489608105.23,60698,10.19,73360.0,-10.49,-11.15,-11.15,0,*6D
1489608106.47,60699,10.19,73366.0,-10.49,-11.07,-11.15,0,*6F
1489608107.71,60700,10.19,73366.3,-10.49,-11.07,-11.15,0,*6E
1489608108.96,60701,10.19,73366.8,-10.49,-11.07,-11.15,0,*6F
1489608110.2,60702,10.19,73370.5,-10.49,-11.07,-11.19,0,*60
1489608111.42,60703,10.19,73370.5,-10.49,-11.01,-11.19,0,*67
1489608112.63,60704,10.19,73392.0,-10.49,-11.01,-11.19,0,*60
1489608113.89,60705,10.19,73368.0,-10.49,-11.07,-11.33,0,*6F
1489608115.14,60706,10.19,73358.5,-10.49,-11.07,-11.45,0,*6D
1489608116.4,60707,10.19,73354.5,-10.47,-11.15,-11.59,0,*6C
1489608117.65,60708,10.19,73370.8,-10.47,-11.19,-11.73,0,*67
1489608118.94,60709,10.19,73374.3,-10.47,-11.29,-11.97,0,*6F
1489608120.23,60710,10.19,73364.8,-10.47,-11.33,-12.11,0,*61
1489608121.51,60711,10.19,73382.8,-10.47,-11.33,-12.57,0,*62
1489608122.77,60712,10.19,73368.3,-10.47,-11.33,-12.89,0,*62
1489608124.01,60713,10.19,73368.5,-10.47,-11.45,-13.15,0,*66
1489608125.28,60714,10.19,73350.5,-10.47,-11.45,-12.61,0,*63
1489608126.56,60715,10.19,73360.8,-10.47,-11.37,-11.89,0,*62
1489608127.82,60716,10.19,73378.5,-10.49,-11.37,-11.51,0,*6A
1489608129.09,60717,10.19,73350.8,-10.49,-11.37,-11.51,0,*6B
1489608130.35,60718,10.19,73314.3,-10.49,-11.37,-11.63,0,*65
1489608131.64,60719,10.19,73326.0,-10.47,-11.37,-11.51,0,*6B
1489608132.9,60720,10.19,73324.8,-10.49,-11.33,-11.51,0,*6B
1489608134.18,60721,10.19,73324.5,-10.49,-11.29,-11.63,0,*60
1489608135.44,60722,10.19,73360.5,-10.49,-11.33,-11.59,0,*61
1489608136.71,60723,10.19,73356.0,-10.49,-11.29,-11.59,0,*6B
1489608138.0,60724,10.19,73350.3,-10.47,-11.29,-11.89,0,*6F
1489608139.29,60725,10.19,73358.3,-10.47,-11.33,-11.89,0,*65
1489608140.58,60726,10.19,73380.8,-10.47,-11.33,-12.35,0,*62
1489608141.87,60727,10.19,73370.8,-10.47,-11.37,-12.35,0,*67
1489608143.13,60728,10.19,73376.0,-10.47,-11.45,-12.15,0,*6F
1489608144.37,60729,10.19,73362.3,-10.47,-11.45,-12.29,0,*61
1489608145.66,60730,10.19,73332.5,-10.47,-11.37,-12.15,0,*63
1489608146.92,60731,10.19,73330.0,-10.47,-11.45,-12.83,0,*68
1489608148.16,60732,10.19,73328.8,-10.49,-11.51,-12.97,0,*65
1489608149.42,60733,10.19,73334.0,-10.49,-11.51,-11.97,0,*67
1489608150.69,60734,10.19,73334.3,-10.49,-11.37,-11.73,0,*6A
1489608151.95,60735,10.19,73352.0,-10.49,-11.37,-11.85,0,*62
1489608153.21,60736,10.19,73350.5,-10.49,-11.37,-12.15,0,*6B
1489608154.5,60737,10.19,73362.8,-10.51,-11.51,-12.57,0,*65
1489608155.76,60738,10.19,73352.0,-10.49,-11.37,-11.89,0,*63
1489608157.03,60739,10.19,73340.5,-10.51,-11.41,-11.81,0,*62
1489608158.27,60740,10.19,73344.0,-10.49,-11.41,-11.81,0,*65
1489608159.54,60741,10.19,73362.5,-10.51,-11.41,-11.89,0,*65
1489608160.8,60742,10.19,73360.3,-10.49,-11.37,-11.59,0,*63
1489608162.07,60743,10.19,73374.8,-10.49,-11.33,-11.51,0,*6E
1489608163.33,60744,10.19,73372.0,-10.49,-11.33,-11.59,0,*61
1489608164.6,60745,10.19,73384.8,-10.49,-11.33,-11.59,0,*60
1489608165.86,60746,10.19,73382.5,-10.49,-11.33,-11.59,0,*63
1489608167.13,60747,10.19,73400.8,-10.51,-11.37,-12.03,0,*63
1489608168.39,60748,10.19,73390.0,-10.49,-11.33,-12.11,0,*62
1489608169.66,60749,10.19,73390.3,-10.49,-11.37,-12.15,0,*63
1489608170.92,60750,10.19,73388.5,-10.49,-11.37,-11.85,0,*61
1489608172.19,60751,10.19,73366.0,-10.51,-11.41,-11.63,0,*60
1489608173.44,60752,10.19,73400.8,-10.49,-11.41,-11.55,0,*6F
1489608174.71,60753,10.19,73376.3,-10.51,-11.41,-11.63,0,*62
1489608175.96,60754,10.19,73394.8,-10.49,-11.45,-11.51,0,*69
1489608177.22,60755,10.19,73388.0,-10.49,-11.37,-11.51,0,*6D
1489608178.48,60756,10.13,73352.3,-10.49,-11.37,-11.59,0,*66
1489608179.75,60757,10.19,73348.5,-10.51,-11.41,-11.81,0,*6A
1489608181.01,60758,10.19,73354.3,-10.49,-11.37,-12.11,0,*67
1489608182.3,60759,10.19,73362.8,-10.51,-11.55,-12.53,0,*6D
1489608183.57,60760,10.19,73388.0,-10.51,-11.63,-12.93,0,*6E
1489608184.82,60761,10.13,73404.3,-10.49,-11.51,-13.19,0,*64
1489608186.08,60762,10.19,73360.3,-10.51,-11.77,-13.07,0,*65
1489608187.38,60763,10.19,73364.8,-10.51,-11.67,-12.35,0,*65
1489608188.62,60764,10.19,73372.8,-10.53,-11.55,-12.47,0,*64
1489608189.89,60765,10.13,73374.3,-10.53,-11.63,-13.01,0,*63
1489608191.18,60766,10.13,73352.5,-10.51,-11.67,-13.01,0,*66
1489608192.44,60767,10.13,73362.3,-10.51,-11.77,-13.51,0,*63
1489608193.73,60768,10.19,73364.3,-10.51,-11.67,-12.61,0,*6F
1489608195.0,60769,10.13,73344.0,-10.51,-11.63,-12.47,0,*6E
1489608196.3,60770,10.13,73336.5,-10.55,-11.59,-12.71,0,*6E
1489608197.57,60771,10.13,73354.3,-10.53,-11.77,-13.37,0,*66
1489608198.83,60772,10.13,73350.5,-10.53,-11.89,-13.79,0,*6E
1489608200.1,60773,10.13,73350.0,-10.53,-11.93,-14.05,0,*68
1489608201.37,60774,10.13,73354.0,-10.55,-12.07,-14.29,0,*69
1489608202.66,60775,10.13,73348.8,-10.55,-12.11,-14.51,0,*60
1489608203.95,60776,10.13,73340.3,-10.55,-12.11,-14.05,0,*62
1489608205.19,60777,10.13,73336.5,-10.53,-12.15,-14.61,0,*63
1489608206.46,60778,10.13,73336.3,-10.55,-12.25,-14.51,0,*6A
1489608207.76,60779,10.13,73350.5,-10.55,-12.35,-14.83,0,*65
1489608209.06,60780,10.19,73350.5,-10.55,-12.35,-14.97,0,*66
1489608210.3,60781,10.13,73360.3,-10.57,-12.43,-14.97,0,*64
1489608211.56,60782,10.13,73344.5,-10.55,-12.35,-13.93,0,*67
1489608212.81,60783,10.13,73352.3,-10.57,-12.11,-12.93,0,*63
1489608214.1,60784,10.13,73342.5,-10.59,-11.97,-12.57,0,*6F
1489608215.39,60785,10.13,73362.3,-10.59,-11.89,-12.71,0,*65
1489608216.66,60786,10.19,73356.5,-10.59,-11.97,-13.43,0,*69
1489608217.9,60787,10.13,73358.8,-10.59,-12.25,-14.69,0,*6D
1489608219.14,60788,10.13,73370.5,-10.57,-12.25,-14.93,0,*69
1489608220.42,60789,10.13,73362.3,-10.57,-12.35,-14.83,0,*68
1489608221.68,60790,10.13,73368.5,-10.59,-12.39,-14.97,0,*67
1489608222.95,60791,10.13,73376.3,-10.59,-12.43,-14.83,0,*6E
1489608224.22,60792,10.13,73382.5,-10.59,-12.47,-15.01,0,*62
1489608225.51,60793,10.13,73382.5,-10.63,-12.53,-15.01,0,*6F
1489608226.8,60794,10.13,73390.5,-10.63,-12.53,-15.01,0,*68
1489608228.09,60795,10.13,73392.0,-10.63,-12.53,-14.51,0,*6D
1489608229.36,60796,10.13,73398.0,-10.65,-12.35,-14.01,0,*6D
1489608230.63,60797,10.13,73402.5,-10.65,-12.35,-13.33,0,*6A
1489608231.87,60798,10.13,73404.8,-10.65,-12.21,-13.01,0,*61
1489608233.16,60799,10.13,73402.0,-10.63,-12.07,-12.75,0,*60
1489608234.43,60800,10.13,73404.3,-10.63,-12.03,-12.53,0,*6F
1489608235.68,60801,10.13,73412.5,-10.65,-11.93,-12.29,0,*6F
1489608236.92,60802,10.13,73368.3,-10.63,-12.03,-12.21,0,*68
1489608238.13,60803,10.13,73350.0,-10.65,-12.29,-12.43,0,*63
1489608239.41,60804,10.13,73346.3,-10.65,-11.93,-12.07,0,*66
1489608240.7,60805,10.13,73334.8,-10.67,-11.89,-11.89,0,*6B
1489608241.99,60806,10.13,73336.8,-10.67,-11.81,-11.81,0,*68
1489608243.25,60807,10.13,73360.0,-10.65,-11.67,-11.77,0,*6A
1489608244.52,60808,10.13,73374.8,-10.65,-11.63,-11.67,0,*60
1489608245.79,60809,10.13,73350.5,-10.65,-11.55,-11.63,0,*60
1489608247.06,60810,10.13,73346.8,-10.65,-11.55,-11.63,0,*68
1489608248.34,60811,10.13,73358.8,-10.65,-11.55,-11.63,0,*69
1489608249.6,60812,10.13,73352.8,-10.65,-11.55,-11.55,0,*6F
1489608250.9,60813,10.13,73340.3,-10.63,-11.51,-11.63,0,*69
1489608252.16,60814,10.13,73382.8,-10.65,-11.51,-11.55,0,*6D
1489608253.41,60815,10.13,73378.0,-10.65,-11.45,-11.55,0,*69
1489608254.67,60816,10.13,73374.3,-10.65,-11.55,-11.77,0,*6B
1489608255.93,60817,10.13,73320.3,-10.65,-11.77,-11.81,0,*63
1489608257.2,60818,10.13,73320.8,-10.65,-11.63,-11.77,0,*60
1489608258.47,60819,10.13,73364.3,-10.65,-11.55,-11.67,0,*65
1489608259.74,60820,10.13,73360.0,-10.65,-11.55,-11.63,0,*6B
1489608261.01,60821,10.13,73324.5,-10.65,-11.55,-11.55,0,*6F
1489608262.3,60822,10.13,73328.8,-10.67,-11.55,-11.55,0,*6E
1489608263.6,60823,10.13,73374.3,-10.67,-11.51,-11.63,0,*6E
1489608264.86,60824,10.13,73374.5,-10.67,-11.51,-12.03,0,*6C
1489608266.16,60825,10.13,73338.5,-10.67,-11.55,-11.67,0,*68
1489608267.45,60826,10.13,73336.8,-10.67,-11.55,-11.67,0,*6B
1489608268.75,60827,10.13,73336.3,-10.67,-11.55,-11.63,0,*6E
1489608270.02,60828,10.13,73350.5,-10.65,-11.55,-11.55,0,*66
1489608271.28,60829,10.13,73334.0,-10.65,-11.51,-11.55,0,*63
1489608272.55,60830,10.13,73328.8,-10.65,-11.51,-11.55,0,*6B
1489608273.82,60831,10.13,73340.8,-10.65,-11.51,-11.63,0,*6F
1489608275.08,60832,10.13,73348.5,-10.65,-11.51,-11.55,0,*69
1489608276.35,60833,10.13,73354.5,-10.65,-11.51,-11.67,0,*69
1489608277.62,60834,10.13,73332.5,-10.65,-11.63,-12.35,0,*6B
1489608278.88,60835,10.13,73238.0,-10.65,-11.55,-12.15,0,*6D
1489608280.15,60836,10.13,73266.8,-10.65,-11.55,-11.81,0,*60
1489608281.44,60837,10.13,73280.0,-10.63,-11.55,-11.93,0,*64
1489608282.73,60838,10.13,73296.0,-10.63,-11.63,-12.35,0,*61
1489608284.0,60839,10.13,73378.0,-10.65,-11.63,-12.15,0,*64
1489608285.27,60840,10.13,73372.8,-10.65,-11.55,-12.07,0,*6C
1489608286.53,60841,10.13,73382.0,-10.65,-11.55,-11.81,0,*60
1489608287.82,60842,10.13,73382.8,-10.63,-11.55,-11.67,0,*6D
1489608289.1,60843,10.13,73386.3,-10.65,-11.55,-11.63,0,*6E
1489608290.37,60844,10.13,73374.0,-10.65,-11.63,-11.93,0,*63
1489608291.61,60845,10.13,73360.0,-10.65,-11.77,-12.29,0,*65
1489608292.85,60846,10.13,73374.0,-10.65,-11.77,-12.21,0,*6E
1489608294.09,60847,10.13,73386.5,-10.65,-11.77,-12.43,0,*6B
1489608295.36,60848,10.13,73362.5,-10.67,-11.77,-12.03,0,*62
1489608296.65,60849,10.13,73362.5,-10.67,-11.67,-11.81,0,*6B
1489608297.94,60850,10.13,73332.5,-10.67,-11.63,-11.77,0,*6E
1489608299.23,60851,10.13,73306.5,-10.67,-11.55,-11.77,0,*6A
1489608300.52,60852,10.13,73296.3,-10.67,-11.63,-11.67,0,*6D
1489608301.82,60853,10.13,73320.8,-10.67,-11.63,-11.67,0,*6C
1489608303.12,60854,10.13,73342.8,-10.67,-11.63,-11.67,0,*6B
1489608304.41,60855,10.13,73358.0,-10.67,-11.55,-11.55,0,*6E
1489608305.7,60856,10.13,73366.5,-10.67,-11.55,-11.55,0,*6D
1489608307.0,60857,10.13,73408.8,-10.67,-11.51,-11.55,0,*68
1489608308.29,60858,10.13,73386.3,-10.67,-11.51,-11.63,0,*62
1489608309.56,60859,10.13,73370.0,-10.67,-11.51,-12.03,0,*66
1489608310.85,60860,10.13,73350.0,-10.67,-11.63,-12.07,0,*69
1489608312.15,60861,10.13,73372.0,-10.67,-11.55,-11.93,0,*63
1489608313.44,60862,10.13,73358.8,-10.67,-11.55,-12.15,0,*6D
1489608314.71,60863,10.13,73354.8,-10.67,-11.63,-12.21,0,*6E
1489608316.01,60864,10.13,73332.3,-10.67,-11.77,-11.93,0,*66
1489608317.27,60865,10.13,73312.5,-10.65,-11.77,-11.81,0,*66
1489608318.53,60866,10.13,73316.5,-10.69,-11.73,-11.85,0,*69
1489608319.82,60867,10.13,73334.3,-10.67,-11.67,-11.81,0,*67
1489608321.11,60868,10.13,73362.3,-10.67,-11.67,-11.89,0,*60
1489608322.38,60869,10.13,73378.5,-10.69,-11.67,-11.85,0,*63
1489608323.67,60870,10.13,73372.8,-10.67,-11.63,-11.93,0,*66
1489608324.91,60871,10.19,73374.0,-10.69,-11.73,-12.39,0,*6B
1489608326.18,60872,10.13,73348.8,-10.69,-11.81,-12.79,0,*61
1489608327.42,60873,10.19,73354.8,-10.69,-11.93,-13.51,0,*68
1489608328.69,60874,10.13,73346.3,-10.69,-12.07,-14.05,0,*67
1489608329.96,60875,10.13,73332.5,-10.69,-12.35,-13.97,0,*6B
1489608331.23,60876,10.13,73342.8,-10.69,-12.35,-14.79,0,*6F
1489608332.46,60877,10.13,73348.8,-10.69,-12.39,-13.79,0,*65
1489608333.72,60878,10.13,73366.8,-10.71,-12.35,-13.55,0,*61
1489608335.02,60879,10.13,73370.0,-10.71,-12.35,-12.71,0,*67
1489608336.28,60880,10.13,73348.8,-10.71,-12.11,-12.25,0,*66
1489608337.55,60881,10.13,73350.5,-10.71,-12.07,-12.21,0,*64
1489608338.84,60882,10.13,73352.5,-10.71,-11.97,-12.11,0,*6E
1489608340.11,60883,10.13,73336.3,-10.73,-11.85,-12.11,0,*6E
1489608341.38,60884,10.13,73342.0,-10.73,-11.77,-11.97,0,*69
1489608342.67,60885,10.13,73342.3,-10.71,-11.73,-11.93,0,*6A
1489608343.95,60886,10.13,73340.3,-10.71,-11.73,-12.07,0,*67
1489608345.24,60887,10.13,73334.0,-10.71,-11.85,-11.97,0,*65
1489608346.51,60888,10.13,73314.0,-10.73,-11.77,-11.89,0,*6A
1489608347.8,60889,10.13,73312.0,-10.71,-11.81,-11.97,0,*6F
1489608349.06,60890,10.13,73278.0,-10.73,-11.81,-11.85,0,*66
1489608350.36,60891,10.13,73248.5,-10.71,-11.93,-12.07,0,*6F
1489608351.62,60892,10.13,73234.3,-10.73,-12.11,-12.15,0,*64
1489608352.91,60893,10.13,73282.3,-10.71,-11.85,-11.97,0,*60
1489608354.18,60894,10.13,73302.0,-10.73,-11.85,-11.97,0,*65
1489608355.45,60895,10.13,73314.5,-10.73,-11.77,-11.85,0,*6A
1489608356.71,60896,10.13,73332.8,-10.73,-11.73,-11.97,0,*6E
1489608357.98,60897,10.13,73312.3,-10.73,-11.85,-11.89,0,*69
1489608359.25,60898,10.13,73318.0,-10.73,-11.77,-11.97,0,*64
1489608360.52,60899,10.19,73316.8,-10.73,-11.77,-11.89,0,*6A
1489608361.79,60900,10.13,73322.8,-10.73,-11.85,-11.89,0,*66
1489608363.06,60901,10.13,73332.3,-10.73,-11.73,-11.73,0,*6B
1489608364.33,60902,10.13,73372.3,-10.73,-11.63,-11.63,0,*68
1489608365.61,60903,10.13,73382.3,-10.73,-11.63,-11.63,0,*69
1489608366.9,60904,10.13,73390.0,-10.71,-11.59,-11.67,0,*61
1489608368.18,60905,10.13,73378.5,-10.73,-11.63,-11.63,0,*6F
1489608369.45,60906,10.13,73368.5,-10.73,-11.55,-11.59,0,*60
1489608370.74,60907,10.13,73378.8,-10.71,-11.55,-11.55,0,*6F
1489608372.01,60908,10.13,73372.8,-10.71,-11.41,-11.59,0,*69
1489608373.3,60909,10.13,73358.0,-10.71,-11.55,-11.67,0,*60
1489608374.59,60910,10.13,73342.3,-10.71,-11.55,-11.63,0,*6C
1489608375.88,60911,10.13,73348.3,-10.71,-11.51,-11.59,0,*60
1489608377.17,60912,10.13,73352.5,-10.71,-11.51,-11.59,0,*63
1489608378.43,60913,10.13,73366.3,-10.71,-11.41,-11.51,0,*6B
1489608379.68,60914,10.13,73356.0,-10.73,-11.45,-11.55,0,*6E
1489608380.93,60915,10.13,73350.8,-10.73,-11.41,-11.51,0,*6F
1489608382.2,60916,10.13,73336.3,-10.73,-11.59,-11.55,0,*61
1489608383.47,60917,10.13,73366.0,-10.71,-11.41,-11.55,0,*6B
1489608384.73,60918,10.13,73372.5,-10.71,-11.41,-11.51,0,*60
1489608386.02,60919,10.13,73352.0,-10.71,-11.37,-11.51,0,*60
1489608387.29,60920,10.13,73332.5,-10.71,-11.41,-11.55,0,*6F
1489608388.58,60921,10.13,73330.3,-10.71,-11.37,-11.55,0,*6F
1489608389.84,60922,10.13,73324.8,-10.71,-11.41,-11.55,0,*6D
1489608391.13,60923,10.13,73324.0,-10.71,-11.51,-11.67,0,*6C
1489608392.39,60924,10.13,73324.0,-10.69,-11.51,-11.73,0,*67
1489608393.66,60925,10.13,73320.8,-10.69,-11.51,-11.73,0,*66
1489608394.92,60926,10.13,73314.3,-10.69,-11.51,-11.67,0,*60
1489608396.18,60927,10.13,73340.3,-10.69,-11.51,-11.81,0,*69
1489608397.45,60928,10.13,73352.5,-10.69,-11.55,-11.93,0,*61
1489608398.72,60929,10.13,73354.3,-10.69,-11.55,-12.07,0,*6E
1489608399.99,60930,10.13,73368.0,-10.69,-11.55,-11.97,0,*6C
1489608401.27,60931,10.13,73350.5,-10.67,-11.51,-11.81,0,*60
1489608402.54,60932,10.13,73346.0,-10.69,-11.55,-11.67,0,*61
1489608403.81,60933,10.13,73346.3,-10.69,-11.55,-11.73,0,*65
1489608405.1,60934,10.13,73360.5,-10.71,-11.59,-11.73,0,*67
1489608406.36,60935,10.13,73362.3,-10.69,-11.59,-11.73,0,*6F
1489608407.63,60936,10.13,73360.3,-10.69,-11.59,-11.73,0,*6C
1489608408.89,60937,10.13,73358.0,-10.69,-11.55,-11.73,0,*61
1489608410.16,60938,10.13,73344.8,-10.69,-11.55,-11.67,0,*6B
1489608411.43,60939,10.13,73402.5,-10.69,-11.55,-11.67,0,*6A
1489608412.72,60940,10.13,73402.3,-10.71,-11.55,-11.81,0,*65
1489608414.01,60941,10.13,73390.0,-10.71,-11.55,-11.93,0,*67
1489608415.3,60942,10.13,73320.0,-10.71,-11.67,-11.93,0,*65
1489608416.59,60943,10.13,73328.3,-10.71,-11.59,-11.85,0,*6E
1489608417.88,60944,10.13,73296.5,-10.71,-11.55,-11.85,0,*65
1489608419.17,60945,10.13,73330.3,-10.71,-11.55,-11.73,0,*6D
1489608420.44,60946,10.13,73356.8,-10.69,-11.55,-11.67,0,*62
1489608421.73,60947,10.13,73326.5,-10.71,-11.55,-11.67,0,*6A
1489608423.02,60948,10.13,73322.3,-10.71,-11.55,-11.85,0,*69
1489608424.29,60949,10.13,73310.3,-10.69,-11.67,-12.57,0,*6C
1489608425.53,60950,10.13,73262.5,-10.69,-11.81,-12.97,0,*60
1489608426.76,60951,10.13,73252.3,-10.69,-11.81,-12.93,0,*65
1489608428.03,60952,10.13,73258.3,-10.69,-11.81,-12.53,0,*6A
1489608429.29,60953,10.13,73240.8,-10.71,-11.73,-12.39,0,*63
1489608430.56,60954,10.13,73224.5,-10.73,-11.77,-12.53,0,*6E
1489608431.84,60955,10.13,73252.0,-10.71,-11.73,-12.57,0,*6D
1489608433.09,60956,10.13,73282.3,-10.73,-11.97,-13.55,0,*65
1489608434.34,60957,10.13,73298.0,-10.71,-11.97,-13.93,0,*6C
1489608435.63,60958,10.13,73294.3,-10.71,-12.11,-14.05,0,*66
1489608436.88,60959,10.13,73268.3,-10.71,-12.21,-14.19,0,*69
1489608438.09,60960,10.13,73298.8,-10.73,-12.29,-13.69,0,*69
1489608439.31,60961,10.13,73294.3,-10.73,-12.25,-14.11,0,*6C
1489608440.55,60962,10.13,73278.0,-10.73,-12.39,-13.87,0,*6A
1489608441.81,60963,10.13,73288.0,-10.73,-12.15,-13.37,0,*6E
1489608443.08,60964,10.13,73308.8,-10.73,-12.15,-13.29,0,*66
1489608444.35,60965,10.13,73288.5,-10.75,-12.15,-12.89,0,*6A
1489608445.59,60966,10.13,73270.8,-10.75,-12.03,-12.89,0,*6E
1489608446.86,60967,10.13,73304.3,-10.75,-11.89,-12.43,0,*68
1489608448.13,60968,10.13,73302.8,-10.75,-11.85,-12.29,0,*67
1489608449.39,60969,10.13,73312.8,-10.77,-11.81,-12.35,0,*6D
1489608450.68,60970,10.13,73306.8,-10.75,-11.85,-13.29,0,*6F
1489608451.97,60971,10.13,73312.0,-10.75,-11.89,-12.57,0,*6A
1489608453.24,60972,10.13,73326.0,-10.75,-11.73,-12.29,0,*65
1489608454.47,60973,10.13,73326.0,-10.77,-11.77,-12.43,0,*6E
1489608455.77,60974,10.13,73354.3,-10.75,-11.73,-12.71,0,*6E
1489608457.03,60975,10.13,73370.3,-10.75,-11.97,-14.11,0,*65
1489608458.3,60976,10.13,73376.0,-10.75,-11.97,-12.43,0,*67
1489608459.54,60977,10.13,73354.8,-10.77,-11.93,-12.43,0,*60
1489608460.81,60978,10.13,73330.8,-10.77,-11.93,-12.35,0,*6E
1489608462.05,60979,10.13,73342.5,-10.77,-11.81,-12.21,0,*69
1489608463.31,60980,10.13,73346.3,-10.77,-11.77,-12.07,0,*62
1489608464.57,60981,10.13,73286.3,-10.77,-11.81,-12.07,0,*6A
1489608465.8,60982,10.13,73270.5,-10.77,-11.77,-12.03,0,*64
1489608467.09,60983,10.13,73296.0,-10.75,-11.85,-11.97,0,*64
1489608468.36,60984,10.13,73310.5,-10.77,-11.89,-12.07,0,*67
1489608469.65,60985,10.13,73334.5,-10.75,-11.73,-11.89,0,*64
1489608470.91,60986,10.13,73304.0,-10.77,-11.67,-11.93,0,*6B
1489608472.15,60987,10.13,73308.5,-10.77,-11.67,-12.21,0,*60
1489608473.39,60988,10.13,73316.3,-10.77,-11.67,-12.29,0,*67
1489608474.66,60989,10.13,73308.5,-10.75,-11.63,-12.25,0,*6C
1489608475.96,60990,10.13,73336.0,-10.75,-11.63,-12.15,0,*67
1489608477.2,60991,10.13,73320.8,-10.77,-11.63,-12.29,0,*6B
1489608478.47,60992,10.13,73318.0,-10.75,-11.59,-12.29,0,*63
1489608479.73,60993,10.13,73322.5,-10.77,-11.77,-12.75,0,*65
1489608480.99,60994,10.13,73310.8,-10.77,-11.67,-12.15,0,*65
1489608482.28,60995,10.13,73336.0,-10.75,-11.59,-11.77,0,*6C
1489608483.55,60996,10.13,73330.8,-10.77,-11.63,-11.93,0,*6E
1489608484.85,60997,10.13,73328.8,-10.75,-11.63,-12.11,0,*64
1489608486.09,60998,10.13,73356.0,-10.77,-11.67,-12.03,0,*6E
1489608487.36,60999,10.13,73380.3,-10.75,-11.63,-12.03,0,*69
1489608488.65,61000,10.13,73330.0,-10.75,-11.59,-12.83,0,*60
1489608489.92,61001,10.13,73338.5,-10.75,-11.59,-12.43,0,*6D
1489608491.18,61002,10.13,73332.5,-10.77,-11.59,-12.75,0,*69
1489608492.48,61003,10.13,73338.5,-10.75,-11.59,-12.71,0,*6E
1489608493.78,61004,10.13,73350.3,-10.75,-11.63,-12.75,0,*64
1489608495.01,61005,10.13,73346.0,-10.77,-11.81,-13.43,0,*6F
1489608496.3,61006,10.13,73320.5,-10.75,-11.77,-12.61,0,*66
1489608497.54,61007,10.13,73328.3,-10.77,-11.67,-12.03,0,*60
1489608498.8,61008,10.13,73326.0,-10.77,-11.67,-11.81,0,*66